FW8758 Weather Reports


time (UTC)temp
C
wind
direction
speed
KPH
gust
KPH
rain 1hr
cm
rain 24hr
cm
rain mn
cm
humidity
%
barometer
mb
20260507070044 6 0 0.0 3.2 0.00 0.66 0.00 84 1005.8
20260507064538 6 158 0.0 4.8 0.00 0.66 0.00 84 1006.0
20260507063036 6 225 1.6 6.4 0.00 0.66 0.00 84 1006.2
20260507061530 6 248 1.6 6.4 0.00 0.66 0.00 84 1006.2
20260507060032 6 203 0.0 6.4 0.00 0.66 0.00 84 1006.4
20260507054535 6 235 3.2 8.0 0.00 0.66 0.00 85 1006.4
20260507053038 5 215 1.6 4.8 0.00 0.66 0.00 86 1006.8
20260507051540 5 224 0.0 3.2 0.00 0.66 0.00 86 1006.9
20260507050041 5 0 0.0 3.2 0.00 0.66 0.00 86 1007.0
20260507044534 5 0 0.0 3.2 0.00 0.66 0.00 85 1007.2
20260507043036 5 0 0.0 4.8 0.00 0.66 0.00 85 1007.4
20260507041537 5 227 0.0 3.2 0.00 0.66 0.00 85 1007.5
20260507040035 5 0 0.0 0.0 0.00 0.66 0.00 84 1007.4
20260507034551 5 0 0.0 3.2 0.00 0.66 0.66 84 1007.5
20260507033042 5 0 0.0 3.2 0.00 0.66 0.66 84 1007.7
20260507031536 5 0 0.0 4.8 0.00 0.66 0.66 83 1007.8
20260507030036 6 0 0.0 3.2 0.00 0.66 0.66 83 1007.9
20260507024548 6 0 0.0 3.2 0.00 0.66 0.66 83 1008.2
20260507023030 6 0 1.6 3.2 0.00 0.66 0.66 84 1008.2
20260507021545 5 0 0.0 3.2 0.00 0.66 0.66 83 1008.6
20260507020035 6 0 0.0 3.2 0.00 0.66 0.66 83 1008.5
20260507014540 6 0 0.0 3.2 0.00 0.66 0.66 83 1008.5
20260507013034 6 230 0.0 3.2 0.00 0.66 0.66 84 1008.4
20260507011539 6 223 0.0 3.2 0.00 0.66 0.66 84 1008.4
20260507010042 6 198 0.0 3.2 0.00 0.66 0.66 84 1008.4
20260507004534 6 0 0.0 1.6 0.00 0.66 0.66 83 1008.5
20260507003034 6 0 0.0 0.0 0.00 0.66 0.66 82 1008.4
20260507001559 6 0 0.0 0.0 0.00 0.66 0.66 82 1008.2
20260507000037 6 0 0.0 0.0 0.00 0.66 0.66 80 1008.0
20260506234535 6 0 0.0 3.2 0.00 0.66 0.66 79 1008.0
20260506233038 7 0 0.0 3.2 0.00 0.66 0.66 77 1008.2
20260506231533 7 0 0.0 3.2 0.00 0.66 0.66 76 1008.0
20260506230044 7 244 1.6 4.8 0.00 0.66 0.66 76 1008.2
20260506224532 7 188 1.6 4.8 0.00 0.66 0.66 75 1008.1
20260506223039 7 279 1.6 4.8 0.00 0.66 0.66 76 1008.1
20260506221543 7 227 0.0 4.8 0.00 0.66 0.66 76 1008.2
20260506220045 7 290 1.6 8.0 0.00 0.66 0.66 77 1008.1
20260506214534 7 244 3.2 6.4 0.00 0.66 0.66 76 1008.2
20260506213032 7 250 1.6 4.8 0.00 0.66 0.66 78 1008.1
20260506211544 7 173 3.2 6.4 0.00 0.66 0.66 78 1008.3
20260506210035 7 211 0.0 6.4 0.00 0.66 0.66 78 1008.2
20260506204534 7 304 1.6 4.8 0.00 0.79 0.66 77 1008.2
20260506203032 7 0 0.0 3.2 0.00 0.79 0.66 79 1008.2
20260506201536 7 0 1.6 6.4 0.00 0.79 0.66 77 1008.5
20260506200036 7 269 4.8 11.3 0.00 0.79 0.66 77 1008.6
20260506194538 7 231 1.6 6.4 0.00 0.79 0.66 79 1008.6
20260506193034 7 252 4.8 14.5 0.00 0.79 0.66 79 1008.7
20260506191534 7 227 3.2 6.4 0.00 0.79 0.66 79 1008.7
20260506190030 7 0 1.6 6.4 0.00 0.79 0.66 80 1008.8
20260506184535 7 267 1.6 8.0 0.00 0.79 0.66 80 1008.8
20260506183035 7 267 1.6 9.7 0.00 0.79 0.66 80 1009.0
20260506181537 6 176 1.6 8.0 0.00 0.79 0.66 82 1008.9
20260506180038 6 149 4.8 12.9 0.00 0.79 0.66 82 1009.0
20260506174532 6 94 6.4 11.3 0.00 0.79 0.66 83 1008.9
20260506173037 6 130 3.2 12.9 0.03 0.79 0.66 85 1009.1
20260506171535 5 122 3.2 9.7 0.05 0.79 0.66 85 1009.4
20260506170036 5 131 3.2 6.4 0.08 0.76 0.64 86 1009.4
20260506164531 6 188 1.6 4.8 0.08 0.79 0.64 86 1009.7
20260506163035 6 246 1.6 4.8 0.08 0.76 0.64 87 1010.1
20260506161538 6 0 0.0 8.0 0.08 0.74 0.58 85 1010.2
20260506160035 6 0 1.6 4.8 0.10 0.71 0.56 85 1010.2
20260506154539 6 155 1.6 8.0 0.10 0.97 0.56 86 1010.2
20260506153040 6 172 1.6 3.2 0.13 0.94 0.53 85 1010.2
20260506151534 6 92 1.6 8.0 0.15 0.91 0.48 84 1010.4
20260506150045 6 225 3.2 8.0 0.13 0.86 0.46 85 1010.3
20260506144553 6 171 1.6 6.4 0.13 0.84 0.43 85 1010.5
20260506143031 6 287 1.6 4.8 0.10 0.81 0.38 85 1010.4
20260506141536 6 258 3.2 8.0 0.08 0.74 0.33 85 1010.6
20260506140053 6 0 1.6 14.5 0.08 0.74 0.30 85 1010.3
20260506134536 6 244 4.8 11.3 0.08 0.71 0.28 85 1010.2
20260506133034 6 250 0.0 8.0 0.08 0.69 0.28 85 1010.1
20260506131543 6 213 1.6 9.7 0.03 0.64 0.20 84 1009.9
20260506130031 6 200 1.6 12.9 0.08 0.64 0.20 84 1010.0
20260506124536 6 139 3.2 8.0 0.08 0.61 0.18 84 1010.1
20260506123040 6 232 1.6 8.0 0.08 0.58 0.18 84 1010.1
20260506121534 6 265 1.6 6.4 0.08 0.58 0.18 83 1010.1
20260506120035 6 196 1.6 8.0 0.05 0.56 0.13 82 1010.0
20260506114535 6 156 1.6 6.4 0.05 0.53 0.10 82 1010.1
20260506113039 6 241 1.6 8.0 0.03 0.51 0.08 82 1010.1
20260506111536 6 0 1.6 9.7 0.03 0.48 0.08 81 1010.2
20260506110040 6 203 1.6 6.4 0.08 0.48 0.08 81 1009.8
20260506104530 6 254 3.2 9.7 0.05 0.46 0.05 78 1009.8
20260506103030 7 263 3.2 6.4 0.05 0.46 0.05 77 1009.4
20260506101536 7 199 3.2 14.5 0.00 0.43 0.00 73 1009.3
20260506100038 8 241 6.4 14.5 0.00 0.41 0.00 66 1009.1
20260506094531 8 234 4.8 9.7 0.00 0.41 0.00 65 1009.1
20260506093034 9 282 3.2 8.0 0.00 0.41 0.00 79 1008.8
20260506091536 9 219 3.2 16.1 0.00 0.41 0.00 77 1008.6
20260506090038 9 234 4.8 11.3 0.00 0.41 0.00 77 1008.6
20260506084538 10 248 4.8 16.1 0.00 0.41 0.00 77 1008.9
20260506083034 10 238 4.8 12.9 0.00 0.41 0.00 77 1009.0
20260506081541 10 219 4.8 14.5 0.00 0.41 0.00 77 1008.7
20260506073037 10 164 4.8 12.9 0.00 0.41 0.00 75 1008.5
20260506071531 10 206 4.8 16.1 0.00 0.41 0.00 74 1008.3